ROMMA est une association bénévole à but non lucratif. Votre soutien est indispensable : ADHERER à ROMMA ou FAIRE un DON

Le Versoud - (38, Isère)

Vallée du Grésivaudan (220 m)   Longitude: 05° 51' 44" E   Latitude: 45° 13' 06" N Station partenaire n°6
 

Détail journalier du     <<     >>

Température Humidité Pression Vent Dir Rafale Dir. rafale Ensol.
Heure (°C) (%) (hPa) (km/h) (km/h) (min)
01:00 20.576101800---0
02:00 19.681101800---0
03:00 19.184101700---0
04:00 18.783101700---0
05:00 18.185101800---0
06:00 17.787101800---0
07:00 18.186101800---0
08:00 19.680101800---55
09:00 21.871101800---60
10:00 23.664101700---60
11:00 24.862101600---60
12:00 26.354101500---60
13:00 27.549101500---40
14:00 29.549101500---0
15:00 29.550101406ONO40
16:00 30.251101306N60
17:00 30.846101305NNO60
18:00 31.045101205NNO60
19:00 31.348101302NNO55
20:00 29.0591013011O25
21:00 27.95810144S27S0
22:00 23.16710165S27SE0
23:00 20.7801016018S0
minuit 20.978101600---0

Graphique du 02-07-2019

 

Serveur OMMA